Location: Brachstadt
(48.6975°N, 10.6755°E)
Time: 05:20:39
(UTC+00:00)

Cosmos 1833 Rocket - Pass Details

Date: 18 September 2020
Orbit: 831 x 841 km, 71.0° (Epoch: 29 October)

Event Time Altitude Azimuth Distance (km) Brightness Sun altitude
Rises 21:43:41 0° 325° (NW) 3,407 6.8 -36.4°
Reaches altitude 10° 21:46:20 10° 316° (NW) 2,468 5.8 -36.6°
Enters shadow 21:49:15 25° 293° (WNW) 1,625 4.5 -36.8°
